BEIDOU-3 M18

Last updated on Wed May 15 2019 03:07:46 GMT+0000 (Coordinated Universal Time)

1 43707U 18093B 19134.45114778 -.00000053 00000-0 00000+0 0 9995 2 43707 54.8782 270.6776 0006747 277.5947 125.4197 1.86231858 3281

Satellite not in orbit

BEIDOU-3 M18